Regional Weather Roundup
Issued by NWS

Home | Current Version | Previous Version | Graphics & Text | Print | Product List | Glossary Off
Versions: 1 2 3 4 5 6 7 8 9 10 11 12 13 14 15 16 17 18 19 20 21 22 23 24 25 26 27 28 29 30 31 32 33 34 35 36 37 38 39 40 41 42 43 44 45 46 47 48 49 50

000
ASUS43 KMKX 190210
RWRWI

WISCONSIN REGIONAL WEATHER ROUNDUP
NATIONAL WEATHER SERVICE MILWAUKEE/SULLIVAN WI
800 PM CST SUN FEB 18 2018

NOTE: "FAIR" INDICATES FEW OR NO CLOUDS BELOW 12,000 FEET WITH NO
SIGNIFICANT WEATHER AND/OR OBSTRUCTIONS TO VISIBILITY.

WIZ001-002-006>008-014>016-023>028-190300-
NORTHWEST WISCONSIN

CITY           SKY/WX    TMP DP  RH WIND       PRES   REMARKS
SUPERIOR ARPT  LGT SNOW  26  25  96 NE10G17   29.78R WCI  16
ASHLAND        SNOW      24  22  91 N8        29.76R VSB 1/2 WCI  15
HAYWARD        CLOUDY    35  26  69 E5        29.70R WCI  31
SIREN          CLOUDY    28  23  81 N9        29.71R WCI  19
CUMBERLAND     CLOUDY    36  28  75 S6        29.69R WCI  31
RICE LAKE      CLOUDY    38  27  64 S8        29.71R WCI  32
CHETEK         CLOUDY    36  27  69 CALM      29.70R
LADYSMITH      CLOUDY    37  24  59 S7        29.72R WCI  32
EAU CLAIRE     CLOUDY    37  27  67 S7        29.70S WCI  32
MENOMONIE      CLOUDY    39  28  62 S12       29.69S WCI  32
NEW RICHMOND   CLOUDY    37  28  70 S7        29.68R WCI  31
OSCEOLA        FAIR      37  30  75 S5        29.71R WCI  33
$$

WIZ003>005-009-010-017-018-190300-
NORTH CENTRAL WISCONSIN

CITY           SKY/WX    TMP DP  RH WIND       PRES   REMARKS
MANITOWISH WTR CLOUDY    32  23  67 S12       29.70R WCI  23
ARBOR VITAE    CLOUDY    34  25  69 S14G22    29.71R WCI  25
WOODRUFF       CLOUDY    34  25  69 S14G22    29.71R WCI  25
RHINELANDER    CLOUDY    33  23  66 S12G21    29.74R WCI  24
EAGLE RIVER    CLOUDY    32  20  61 S7G16     29.72S WCI  26
LAND O LAKES   CLOUDY    32  22  67 S9        29.72S WCI  24
PHILLIPS       CLOUDY    33  24  68 S10       29.70R WCI  25
TOMAHAWK       CLOUDY    32  23  69 S5        29.74R WCI  27
MEDFORD        CLOUDY    32  23  70 S12       29.73S WCI  23
MERRILL        CLOUDY    32  23  70 S6        29.78R WCI  26
$$

WIZ029-030-035-036-043>047-190300-
CENTRAL WISCONSIN

CITY           SKY/WX    TMP DP  RH WIND       PRES   REMARKS
WAUSAU         FAIR      30  22  72 S10       29.77R WCI  21
MOSINEE        CLEAR     30  25  80 S13       29.79R WCI  20
MARSHFIELD     MOCLDY    30  23  75 S14       29.75S WCI  19
STEVENS POINT  CLOUDY    31  23  71 S7        29.81S WCI  25
WAUPACA        CLOUDY    37  26  65 S7        29.84S WCI  31
WAUTOMA        CLOUDY    34  26  72 S9        29.84S WCI  27
WISC RAPIDS    FAIR      35  22  58 S9        29.81R WCI  28
CAMP DOUGLAS   MOCLDY    37  28  71 S13       29.78S WCI  28
$$

WIZ011>013-019>022-031-037>040-048>050-190300-
NORTHEAST WISCONSIN

CITY           SKY/WX    TMP DP  RH WIND       PRES   REMARKS
ANTIGO         FAIR      29  22  74 S15       29.78S WCI  18
SHAWANO        CLOUDY    35  26  67 S3        29.84S
OCONTO         CLOUDY    33  26  75 S7        29.86F WCI  26
STURGEON BAY   CLOUDY    34  28  79 S20G29    29.88R WCI  23
GREEN BAY      CLOUDY    34  25  69 S9        29.86S WCI  27
MANITOWOC      CLOUDY    34  29  82 S20G30    29.87R WCI  23
APPLETON       MOCLDY    32  23  69 S9        29.83R WCI  24
CLINTONVILLE   CLOUDY    36  23  60 SW12      29.84S WCI  27
OSHKOSH        CLOUDY    34  26  72 S13       29.85R WCI  25
$$

WIZ032>034-041-042-053>061-190300-
SOUTHWEST WISCONSIN

CITY           SKY/WX    TMP DP  RH WIND       PRES   REMARKS
LA CROSSE      FAIR      39  29  67 S9        29.76S WCI  33
SPARTA         FAIR      35  28  75 SE6       29.78S WCI  30
VIROQUA        FAIR      35  31  86 S14       29.76F WCI  26
BOSCOBEL       FAIR      40  30  67 VRB6      29.81F
PRAIRIE DU CHI FAIR      39  28  65 SE5       29.79S
PLATTEVILLE    MOCLDY    39  32  76 S13       29.82R WCI  31
$$

WIZ056-057-062-063-064-067-068-190300-
SOUTH CENTRAL WISCONSIN

CITY           SKY/WX    TMP DP  RH WIND       PRES   REMARKS
REEDSBURG      CLOUDY    36  29  75 S8        29.81S WCI  30
BARABOO/DELLS  CLOUDY    34  29  80 S12       29.81F WCI  26
LONE ROCK      CLOUDY    38  31  76 SE6       29.83S WCI  33
MINERAL POINT  MOCLDY    37  34  87 S13       29.81R WCI  29
MADISON        MOCLDY    36  30  79 S12G23    29.85R WCI  28
MIDDLETON      CLOUDY    38  32  80 S12G17    29.85R WCI  30
WATERTOWN      FAIR      36  29  76 S14G21    29.85R WCI  27
MONROE         FAIR      36  32  87 S20G26    29.82R WCI  25
JANESVILLE     PTCLDY    37  30  75 S13G25    29.85F WCI  29
$$

WIZ051-052-058>065-066-070>072-190300-
SOUTHEAST WISCONSIN

CITY           SKY/WX    TMP DP  RH WIND       PRES   REMARKS
MILWAUKEE      MOCLDY    36  30  79 S18G35    29.89F WCI  26
WAUKESHA       CLEAR     32  27  80 SE14G21   29.88F WCI  22
MILWAUKEE/TIMM CLEAR     34  27  75 S14G20    29.90F WCI  24
RACINE         FAIR      34  31  88 S22G39    29.92F WCI  22
BURLINGTON     FAIR      36  29  76 S14G25    29.88S WCI  27
KENOSHA        FAIR      36  29  75 S17G29    29.90F WCI  26
FOND DU LAC    CLOUDY    34  25  69 S17       29.85R WCI  23
SHEBOYGAN      FAIR      34  30  85 S26G41    29.86F WCI  21
WEST BEND      FAIR      32  30  93 S14G23    29.86F WCI  22
JUNEAU         FAIR      33  26  73 SE9       29.85F WCI  25
$$

LSZ147-162-190300-
LAKE SUPERIOR

STATION/POSITION TIME  TEMP    WIND        PRES    WAVE
                       AIR SEA DIR/SP/G            HT/PER
                 (UTC) (F)     (DEG/KT/KT) (MB)    (FT/S)
DEVILS ISLAND    0200   24      40/ 23/ 26 1009.9R
SAXON HARBOR     0130   27      40/  6/  8 1006.8S
$$

LMZ867-665-643>646-190300-
LAKE MICHIGAN

STATION/POSITION TIME  TEMP    WIND        PRES    WAVE
                       AIR SEA DIR/SP/G            HT/PER
                 (UTC) (F)     (DEG/KT/KT) (MB)    (FT/S)
NORTHPORT PIER   0140   35                 1011.5R
KEWAUNEE LAKESHO 0148   34     190/ 23/ 27 1011.4R
SHEBOYGAN LAKESH 0200   35     170/ 31/ 36 1011.4F
PORT WASHINGTON  0140   35     170/ 18/ 26 1013.5F
MILWAUKEE LAKESH 0150   36     170/ 20/ 22   N/A
KENOSHA   LAKESH 0200   35     170/ 23/ 26 1012.5
$$

TC  - TEMPERATURE IN CELSIUS
VSB - VISIBILITY IN STATUTE MILES
WCI - WIND CHILL INDEX
HX  - HEAT INDEX





USA.gov is the U.S. government's official web portal to all federal, state and local government web resources and services.